Find STARLINK-38114

NORAD ID: 799501194 Int'l Des: 2026-160S Constellation: starlink operational

現在のビュー

3D地球を読み込み中...

About STARLINK-38114

STARLINK-38114 (NORAD 799501194) is a starlink constellation satellite launched Jul 9, 2026

STARLINK-38114について

説明を読み込み中...

次回通過

Passes for default location (London). Set your location on the main map for personalized predictions.

高度履歴

Loading altitude history...

軌道要素

1 99999C 2026160S 26195.36090278 .00585630 00000-0 744880-4 0 1950
2 99999 70.0020 28.6987 0010153 259.1071 157.5387 16.06744075 18
Epoch: Jul 14, 2026 • Age: 8 hours